Content
SEND FEEDBACK

Daily
Averages
Monthly
Summary
United States of America

CASTALIA, OHIO


Home > North America > United States > Ohio
Elevation: 589 feet     Latitude: 41 27N     Longitude: 082 43W

WEATHER
 
SELECT A DAY
Number of Records: 182,973;   Date Range: 10/8/98 - 9/29/14
 
SHARE

PRINT THIS DATA

[ ← Previous Day ]
WEATHER ALMANAC - APRIL 5, 2013
[ Next Day → ]
[ °C ]   °F
Weather ElementAverageHighLow
Temperature40 °F46 °F (3:53 pm)32 °F (10:53 pm)
Dewpoint23.8 °F32 °F (8:53 am)16 °F (1:53 am)
Humidity53.8 %76 % (8:53 am)35 % (3:53 pm)
Barometer30.10 in30.24 in (10:53 pm)29.95 in (2:53 am)
Wind Speed9.9 mph16.1 mph (10:53 am)
Wind Gust25.3 mph (1:53 pm)
Weather ElementAverage
Visibility9.7 mi
Wind DirectionESE (111.3 °)

Weather ElementTotal
Precipitation---
Heating Degree Days26 (Base 65)
Averaged from 23 records on April 5, 2013
WEATHER CONDITIONS BREAKOUT
WIND DIRECTION BREAKOUT
WEATHER BY HOUR - APRIL 5, 2013
[ °C ]   °F
Local TimeTemperatureDewpointHumidityBarometerVisibilityWind DirectionWind SpeedGust SpeedPrecipitationEventsConditions
1:53 AM37.0 °F16.0 °F42 %29.96 in10.0 miWSW (250°)6.9 mphClear
2:53 AM39.0 °F16.0 °F39 %29.95 in10.0 miWest (270°)6.9 mphClear
3:53 AM37.9 °F19.9 °F48 %29.95 in10.0 miWest (260°)4.6 mphMostly Cloudy
4:53 AM41.0 °F18.0 °F40 %29.96 in10.0 miWNW (290°)4.6 mphOvercast
5:53 AM39.9 °F27.0 °F60 %29.98 in10.0 miNNE (20°)8.1 mphOvercast
6:53 AM39.0 °F30.0 °F70 %30.01 in10.0 miNE (40°)4.6 mphOvercast
7:53 AM39.0 °F30.0 °F70 %30.04 in8.0 miNNE (20°)10.4 mphOvercast
8:53 AM39.0 °F32.0 °F76 %30.07 in6.0 miNNE (30°)8.1 mphHaze
9:53 AM39.9 °F30.9 °F70 %30.09 in8.0 miNNE (30°)12.7 mphMostly Cloudy
10:53 AM42.1 °F30.0 °F62 %30.11 in10.0 miNNE (20°)16.1 mphClear
11:53 AM43.0 °F28.0 °F56 %30.12 in10.0 miNE (40°)12.7 mphClear
12:53 PM44.1 °F28.0 °F53 %30.13 in10.0 miNNE (30°)12.7 mphClear
1:53 PM44.1 °F24.1 °F45 %30.13 in10.0 miNorth (10°)16.1 mph25.3 mphClear
2:53 PM45.0 °F21.9 °F40 %30.13 in10.0 miNorth (350°)13.8 mph23.0 mphClear
3:53 PM46.0 °F19.9 °F35 %30.13 in10.0 miNorth (360°)16.1 mph23.0 mphClear
4:53 PM45.0 °F21.0 °F39 %30.12 in10.0 miNNE (30°)12.7 mphClear
5:53 PM45.0 °F21.0 °F39 %30.13 in10.0 miNE (40°)9.2 mphClear
6:53 PM42.1 °F23.0 °F47 %30.16 in10.0 miNE (50°)12.7 mphClear
7:53 PM37.9 °F24.1 °F57 %30.17 in10.0 miENE (70°)12.7 mphClear
8:53 PM36.0 °F24.1 °F62 %30.20 in10.0 miENE (70°)8.1 mphClear
9:53 PM34.0 °F23.0 °F64 %30.23 in10.0 miEast (80°)6.9 mphClear
10:53 PM32.0 °F21.0 °F64 %30.24 in10.0 miEast (80°)8.1 mphClear
11:53 PM32.0 °F19.0 °F59 %30.23 in10.0 miESE (120°)3.5 mphClear
Hourly data recorded from KLPR, located miles away from Castalia, Ohio







STORIES FROM OUR PARTNERS